Regional Weather Roundup
Issued by NWS New Orleans/Baton Rouge, LA

Home | Current Version | Previous Version | Graphics & Text | Print | Product List | Glossary On
Versions: 1 2 3 4 5 6 7 8 9 10 11 12 13 14 15 16 17 18 19 20 21 22 23 24 25 26 27 28 29 30 31 32 33 34 35 36 37 38 39 40 41 42 43 44 45 46 47 48 49 50
772
ASUS44 KLIX 250210
RWRLIX
NEW ORLEANS REGIONAL WEATHER ROUNDUP
NATIONAL WEATHER SERVICE NEW ORLEANS LA
800 PM CST SAT JAN 24 2015

NOTE: "FAIR" INDICATES FEW OR NO CLOUDS BELOW 12,000 FEET WITH NO
      SIGNIFICANT WEATHER AND/OR OBSTRUCTIONS TO VISIBILITY.
      SKY/WX - SKY CONDITION AND SIGNIFICANT WEATHER.
      TMP - AIR TEMPERATURE.     DP    - DEWPOINT TEMPERATURE.
      RH  - RELATIVE HUMIDITY.   PRES  - PRESSURE.
      HI  - HEAT INDEX.          WCI   - WIND CHILL INDEX.

*  THESE STATIONS ARE NOT NWS OR FAA STATIONS AND ARE NOT UNDER
   NWS QUALITY CONTROL.

LAZ038-040-048-061>063-065>067-069-250300-
SOUTHEAST LOUISIANA

CITY           SKY/WX    TMP DP  RH WIND       PRES   REMARKS
N.O. AUDUBON   NOT AVBL
N.O. INTL ARPT PTCLDY    49  32  52 W3        30.09S
N.O. LAKEFRONT CLEAR     52  38  58 SW5       30.09F
N.O. DOWNTOWN*   N/A     52  30  43 S3        30.09S
SLIDELL        CLEAR     41  37  86 CALM      30.08F
BATON ROUGE    CLEAR     47  34  60 SW6       30.07F
BOOTHVILLE     CLEAR     48  42  80 W6        30.11F
BELLE CHASSE   PTCLDY    44  35  70 SW7       30.10S
BOGALUSA*        N/A     40  37  87 CALM      30.09S
GALLIANO*      CLEAR     49  42  76 MISG      30.12S
NEW ROADS*       N/A     48  36  62 S6        30.08F
GONZALES*        N/A     49  37  64 SW5       30.09S
HAMMOND*       CLEAR     43  36  75 CALM      30.10S
HOUMA*         CLEAR     45  40  84 SW5       30.12R
PORT FOURCHON* CLEAR     52  41  66 W12       30.16R

$$

MSZ070-080>082-250300-
SOUTHERN MISSISSIPPI

CITY           SKY/WX    TMP DP  RH WIND       PRES   REMARKS
MCCOMB         CLEAR     43  34  70 CALM      30.06S
GULFPORT       CLEAR     47  35  63 W5        30.08S
BILOXI         CLEAR     48  36  64 W3        30.08S
PASCAGOULA     CLEAR     40  38  93 CALM      30.08S

$$

COASTAL OBSERVATIONS
LAKE AND NEARSHORE STATIONS

STATION/POSITION TIME  TEMP    WIND        PRES    WAVE
                       AIR SEA DIR/SP/G            HT/PER
                 (UTC) (F)     (DEG/KT/KT) (MB)    (FT/S)
PASCAGOULA       0200   52     260/ 10/ 14 1018.0
WAVELAND YACHT   0200   50     260/  5/  6 1017.8
GRAND ISLE       0200   51 55  260/ 11/ 15 1020.2
SOUTHWEST PASS   0200   53 46  290/  9/ 14 1020.1
NEW CANAL        0200   51 52  230/  3/  4 1019.1
SHELL BEACH      0200   49 54  230/  6/  6 1018.9

OFFSHORE STATIONS

STATION/POSITION TIME  TEMP    WIND        PRES    WAVE
                       AIR SEA DIR/SP/G            HT/PER
                 (UTC) (F)     (DEG/KT/KT) (MB)    (FT/S)
64 S DAUPHIN ISL 0059   55 70  300/ 14/ 16 1019.4    4/ 8

$$




USA.gov is the U.S. government's official web portal to all federal, state and local government web resources and services.